Time,TemperatureF,DewpointF,PressureIn,WindDirection,WindDirectionDegrees,WindSpeedMPH,WindSpeedGustMPH,Humidity,HourlyPrecipIn,Conditions,Clouds,dailyrainin,SoftwareType,DateUTC
2013-01-28 00:02:00,31.0,29.0,29.78,South,173,0.0,0.0,91,0.00,,,0.00,,2013-01-28 06:02:00,
2013-01-28 00:11:00,31.0,29.0,29.78,South,173,0.0,0.0,91,0.00,,,0.00,,2013-01-28 06:11:00,
2013-01-28 00:21:00,31.0,29.0,29.78,South,174,0.0,0.0,91,0.00,,,0.00,,2013-01-28 06:21:00,
2013-01-28 00:32:00,31.0,29.0,29.78,South,174,0.0,0.0,91,0.00,,,0.00,,2013-01-28 06:32:00,
2013-01-28 00:42:00,31.0,29.0,29.78,South,174,0.0,0.0,91,0.00,,,0.00,,2013-01-28 06:42:00,
2013-01-28 00:52:00,31.0,29.0,29.77,South,174,0.0,0.0,91,0.00,,,0.00,,2013-01-28 06:52:00,
2013-01-28 01:02:00,31.0,29.0,29.77,South,174,0.0,0.0,91,0.00,,,0.00,,2013-01-28 07:02:00,
2013-01-28 01:11:00,31.0,29.0,29.77,South,174,0.0,0.0,91,0.00,,,0.00,,2013-01-28 07:11:00,
2013-01-28 01:21:00,31.0,29.0,29.77,South,174,0.0,0.0,91,0.00,,,0.00,,2013-01-28 07:21:00,
2013-01-28 01:31:00,31.0,29.0,29.77,South,174,0.0,0.0,91,0.00,,,0.00,,2013-01-28 07:31:00,
2013-01-28 01:41:00,31.0,29.0,29.77,South,174,0.0,0.0,91,0.00,,,0.00,,2013-01-28 07:41:00,
2013-01-28 01:51:00,31.0,29.0,29.76,South,174,0.0,0.0,91,0.00,,,0.00,,2013-01-28 07:51:00,
2013-01-28 02:01:00,31.0,28.0,29.76,South,174,0.0,0.0,90,0.00,,,0.00,,2013-01-28 08:01:00,
2013-01-28 02:11:00,31.0,28.0,29.76,South,174,0.0,0.0,90,0.00,,,0.00,,2013-01-28 08:11:00,
2013-01-28 02:21:00,31.0,29.0,29.77,South,174,0.0,0.0,91,0.00,,,0.00,,2013-01-28 08:21:00,
2013-01-28 02:32:00,31.0,29.0,29.77,South,174,0.0,0.0,91,0.00,,,0.00,,2013-01-28 08:32:00,
2013-01-28 02:42:00,31.0,29.0,29.77,South,174,0.0,0.0,91,0.00,,,0.00,,2013-01-28 08:42:00,
2013-01-28 02:52:00,31.0,29.0,29.77,South,174,0.0,0.0,91,0.00,,,0.00,,2013-01-28 08:52:00,
2013-01-28 03:02:00,31.0,29.0,29.77,South,174,0.0,0.0,91,0.00,,,0.00,,2013-01-28 09:02:00,
2013-01-28 03:11:00,31.0,29.0,29.77,South,174,0.0,0.0,91,0.00,,,0.00,,2013-01-28 09:11:00,
2013-01-28 03:21:00,31.0,29.0,29.77,South,174,0.0,0.0,91,0.00,,,0.00,,2013-01-28 09:21:00,
2013-01-28 03:32:00,31.0,29.0,29.77,South,174,0.0,0.0,91,0.00,,,0.00,,2013-01-28 09:32:00,
2013-01-28 03:42:00,31.0,29.0,29.77,South,174,0.0,0.0,91,0.00,,,0.00,,2013-01-28 09:42:00,
2013-01-28 03:52:00,30.0,28.0,29.77,South,174,0.0,0.0,91,0.00,,,0.00,,2013-01-28 09:52:00,
2013-01-28 04:02:00,30.0,28.0,29.78,South,174,0.0,0.0,91,0.00,,,0.00,,2013-01-28 10:02:00,
2013-01-28 04:11:00,30.0,28.0,29.78,South,174,0.0,0.0,91,0.00,,,0.00,,2013-01-28 10:11:00,
2013-01-28 04:21:00,30.0,28.0,29.78,South,174,0.0,0.0,91,0.00,,,0.00,,2013-01-28 10:21:00,
2013-01-28 04:31:00,30.0,28.0,29.78,South,174,0.0,0.0,91,0.00,,,0.00,,2013-01-28 10:31:00,
2013-01-28 04:41:00,30.0,28.0,29.78,South,174,0.0,0.0,91,0.00,,,0.00,,2013-01-28 10:41:00,
2013-01-28 04:51:00,30.0,28.0,29.78,South,174,0.0,0.0,91,0.00,,,0.00,,2013-01-28 10:51:00,
2013-01-28 05:02:00,30.0,28.0,29.78,South,174,0.0,0.0,91,0.00,,,0.00,,2013-01-28 11:02:00,
2013-01-28 05:11:00,30.0,28.0,29.78,South,174,0.0,0.0,91,0.00,,,0.00,,2013-01-28 11:11:00,
2013-01-28 05:22:00,30.0,28.0,29.79,South,174,0.0,0.0,91,0.00,,,0.00,,2013-01-28 11:22:00,
2013-01-28 05:32:00,30.0,28.0,29.79,South,174,0.0,0.0,91,0.00,,,0.00,,2013-01-28 11:32:00,
2013-01-28 05:42:00,30.0,28.0,29.79,South,174,0.0,0.0,91,0.00,,,0.00,,2013-01-28 11:42:00,
2013-01-28 05:52:00,30.0,28.0,29.80,South,174,0.0,0.0,91,0.00,,,0.00,,2013-01-28 11:52:00,
2013-01-28 06:03:00,30.0,28.0,29.79,South,174,0.0,0.0,91,0.00,,,0.00,,2013-01-28 12:03:00,
2013-01-28 06:11:00,30.0,28.0,29.79,South,174,0.0,0.0,91,0.00,,,0.00,,2013-01-28 12:11:00,
2013-01-28 06:23:00,30.0,28.0,29.80,South,174,0.0,0.0,91,0.00,,,0.00,,2013-01-28 12:23:00,
2013-01-28 06:33:00,30.0,28.0,29.81,South,174,0.0,0.0,91,0.00,,,0.00,,2013-01-28 12:33:00,
2013-01-28 06:42:00,30.0,28.0,29.81,South,174,0.0,0.0,91,0.00,,,0.00,,2013-01-28 12:42:00,
2013-01-28 06:52:00,30.0,28.0,29.81,South,174,0.0,0.0,91,0.00,,,0.00,,2013-01-28 12:52:00,
2013-01-28 07:02:00,30.0,28.0,29.81,South,174,0.0,0.0,91,0.00,,,0.00,,2013-01-28 13:02:00,
2013-01-28 07:12:00,30.0,28.0,29.81,South,174,0.0,0.0,91,0.00,,,0.00,,2013-01-28 13:12:00,
2013-01-28 07:23:00,30.0,28.0,29.83,South,174,0.0,0.0,91,0.00,,,0.00,,2013-01-28 13:23:00,
2013-01-28 07:33:00,30.0,28.0,29.83,South,174,0.0,0.0,91,0.00,,,0.00,,2013-01-28 13:33:00,
2013-01-28 07:42:00,30.0,28.0,29.83,South,174,0.0,0.0,91,0.00,,,0.00,,2013-01-28 13:42:00,
2013-01-28 07:53:00,30.0,28.0,29.83,South,174,0.0,0.0,91,0.00,,,0.00,,2013-01-28 13:53:00,
2013-01-28 08:02:00,30.0,28.0,29.84,South,174,0.0,0.0,91,0.00,,,0.00,,2013-01-28 14:02:00,
2013-01-28 08:12:00,30.0,28.0,29.84,South,174,0.0,0.0,91,0.00,,,0.00,,2013-01-28 14:12:00,
2013-01-28 08:22:00,30.0,28.0,29.84,South,174,0.0,0.0,91,0.00,,,0.00,,2013-01-28 14:22:00,
2013-01-28 08:33:00,31.0,29.0,29.85,South,174,0.0,0.0,91,0.00,,,0.00,,2013-01-28 14:33:00,
2013-01-28 08:42:00,31.0,29.0,29.85,South,174,0.0,0.0,91,0.00,,,0.00,,2013-01-28 14:42:00,
2013-01-28 08:52:00,31.0,29.0,29.85,South,174,0.0,0.0,91,0.00,,,0.00,,2013-01-28 14:52:00,
2013-01-28 09:03:00,31.0,29.0,29.86,ENE,69,0.0,0.0,91,0.00,,,0.00,,2013-01-28 15:03:00,
2013-01-28 09:12:00,31.0,29.0,29.86,ENE,69,0.0,0.0,91,0.00,,,0.00,,2013-01-28 15:12:00,
2013-01-28 09:23:00,31.0,29.0,29.86,ENE,69,0.0,0.0,91,0.00,,,0.00,,2013-01-28 15:23:00,
2013-01-28 09:33:00,31.0,29.0,29.86,ENE,69,0.0,0.0,91,0.00,,,0.00,,2013-01-28 15:33:00,
2013-01-28 09:43:00,31.0,29.0,29.86,ENE,69,0.0,0.0,91,0.00,,,0.00,,2013-01-28 15:43:00,
2013-01-28 09:52:00,31.0,29.0,29.86,NE,34,0.0,1.0,91,0.00,,,0.00,,2013-01-28 15:52:00,
2013-01-28 10:03:00,31.0,28.0,29.85,NE,34,0.0,0.0,90,0.00,,,0.00,,2013-01-28 16:03:00,
2013-01-28 10:12:00,31.0,28.0,29.85,NE,34,0.0,0.0,90,0.00,,,0.00,,2013-01-28 16:12:00,
2013-01-28 10:22:00,32.0,29.0,29.86,NE,34,0.0,0.0,89,0.00,,,0.00,,2013-01-28 16:22:00,
2013-01-28 10:32:00,32.0,29.0,29.86,NE,34,0.0,0.0,89,0.00,,,0.00,,2013-01-28 16:32:00,
2013-01-28 10:42:00,32.0,29.0,29.86,NE,34,0.0,0.0,89,0.00,,,0.00,,2013-01-28 16:42:00,
2013-01-28 10:52:00,32.0,29.0,29.87,NE,34,0.0,0.0,88,0.00,,,0.00,,2013-01-28 16:52:00,
2013-01-28 11:02:00,32.0,29.0,29.88,NE,34,0.0,0.0,87,0.00,,,0.00,,2013-01-28 17:02:00,
2013-01-28 11:12:00,32.0,29.0,29.88,NE,34,0.0,0.0,87,0.00,,,0.00,,2013-01-28 17:12:00,
2013-01-28 11:22:00,32.0,29.0,29.88,NE,34,0.0,0.0,87,0.00,,,0.00,,2013-01-28 17:22:00,
2013-01-28 11:32:00,33.0,30.0,29.88,NE,34,0.0,0.0,87,0.00,,,0.00,,2013-01-28 17:32:00,
2013-01-28 11:42:00,33.0,30.0,29.88,NE,34,0.0,0.0,87,0.00,,,0.00,,2013-01-28 17:42:00,
2013-01-28 11:52:00,33.0,29.0,29.88,ENE,63,0.0,2.0,85,0.00,,,0.00,,2013-01-28 17:52:00,
2013-01-28 12:02:00,33.0,29.0,29.88,WNW,282,0.0,0.0,86,0.00,,,0.00,,2013-01-28 18:02:00,
2013-01-28 12:12:00,33.0,29.0,29.88,WNW,282,0.0,0.0,86,0.00,,,0.00,,2013-01-28 18:12:00,
2013-01-28 12:23:00,33.0,29.0,29.88,WNW,282,0.0,0.0,86,0.00,,,0.00,,2013-01-28 18:23:00,
2013-01-28 12:33:00,33.0,29.0,29.87,WNW,282,0.0,0.0,86,0.00,,,0.00,,2013-01-28 18:33:00,
2013-01-28 12:42:00,33.0,29.0,29.87,WNW,282,0.0,0.0,86,0.00,,,0.00,,2013-01-28 18:42:00,
2013-01-28 12:52:00,33.0,29.0,29.86,WNW,282,0.0,0.0,86,0.00,,,0.00,,2013-01-28 18:52:00,
2013-01-28 13:02:00,33.0,29.0,29.84,WNW,283,0.0,0.0,86,0.00,,,0.00,,2013-01-28 19:02:00,
2013-01-28 13:12:00,33.0,29.0,29.84,WNW,283,0.0,0.0,86,0.00,,,0.00,,2013-01-28 19:12:00,
2013-01-28 13:22:00,33.0,29.0,29.83,WNW,283,0.0,0.0,86,0.01,,,0.01,,2013-01-28 19:22:00,
2013-01-28 13:32:00,34.0,30.0,29.82,WNW,283,0.0,0.0,86,0.02,,,0.02,,2013-01-28 19:32:00,
2013-01-28 13:42:00,34.0,30.0,29.82,WNW,283,0.0,0.0,86,0.02,,,0.02,,2013-01-28 19:42:00,
2013-01-28 13:52:00,34.0,30.0,29.82,WNW,283,0.0,0.0,86,0.03,,,0.03,,2013-01-28 19:52:00,
2013-01-28 14:02:00,34.0,30.0,29.82,WNW,283,0.0,0.0,86,0.03,,,0.03,,2013-01-28 20:02:00,
2013-01-28 14:12:00,34.0,30.0,29.82,WNW,283,0.0,0.0,86,0.03,,,0.03,,2013-01-28 20:12:00,
2013-01-28 14:22:00,34.0,30.0,29.84,SW,223,0.0,0.0,85,0.05,,,0.06,,2013-01-28 20:22:00,
2013-01-28 14:33:00,34.0,31.0,29.83,SW,223,0.0,0.0,87,0.05,,,0.07,,2013-01-28 20:33:00,
2013-01-28 14:43:00,34.0,31.0,29.83,SW,223,0.0,0.0,87,0.05,,,0.07,,2013-01-28 20:43:00,
2013-01-28 14:53:00,33.0,30.0,29.83,South,177,0.0,0.0,87,0.04,,,0.07,,2013-01-28 20:53:00,
2013-01-28 15:03:00,33.0,30.0,29.83,South,178,0.0,0.0,87,0.02,,,0.07,,2013-01-28 21:03:00,
2013-01-28 15:11:00,33.0,30.0,29.83,South,178,0.0,0.0,87,0.02,,,0.07,,2013-01-28 21:11:00,
2013-01-28 15:22:00,33.0,30.0,29.84,South,178,0.0,0.0,87,0.02,,,0.08,,2013-01-28 21:22:00,
2013-01-28 15:33:00,33.0,30.0,29.85,South,178,0.0,0.0,88,0.01,,,0.08,,2013-01-28 21:33:00,
2013-01-28 15:42:00,33.0,30.0,29.85,South,178,0.0,0.0,88,0.01,,,0.08,,2013-01-28 21:42:00,
2013-01-28 15:52:00,33.0,30.0,29.85,South,178,0.0,0.0,88,0.02,,,0.09,,2013-01-28 21:52:00,
2013-01-28 16:02:00,33.0,30.0,29.85,South,178,0.0,0.0,88,0.02,,,0.09,,2013-01-28 22:02:00,
2013-01-28 16:11:00,33.0,30.0,29.85,South,178,0.0,0.0,88,0.02,,,0.09,,2013-01-28 22:11:00,
2013-01-28 16:22:00,33.0,30.0,29.85,South,178,0.0,0.0,88,0.02,,,0.09,,2013-01-28 22:22:00,